Showing default

DJIBOUTI-1B, 62402

Orbit data source: Space-Track

DJIBOUTI-1B, 62402 is a Djibouti payload satellite in LEO that was launched on Sat, 21 Dec 2024 UTC via an FALCON 9 launch vehicle from the Air Force Western Test Range (AFWTR). Payload-class satellites include a variety of spacecraft equipped with specific instruments for various scientific and technological missions. These include communications satellites like Starlink; space stations such as the ISS; scientific satellites like the Hubble; Earth observation satellites from companies like Planet Labs, Umbra, and HawkEye 360; GPS; miniature CubeSats for education and research; and military/defense satellites.

Loading next visibility...
Identifier
62402, 2024-247AB
Orbit
LEO
Country
Flag of DJDJ / DJI
Related business
Manufacturer
Montpellier
Mission
Operational Civil Technology
Bus & Motor
CUBESAT 1U, Unknown motor
Mass
1 kg wet, 1 kg dry
Launch date (UTC)
2024-12-21 (1 year ago)
Launch vehicle
FALCON 9
Launch site
Air Force Western Test Range (AFWTR)
Object type
Payload
Rocket body
Debris
Shape & HBR
Box, 0.1 m
Radar Cross Section
0.015 m², Small (<0.1 m²)

Expand to show TLE details & history
Last TLE update: 2 days ago

TLE from 2 days ago
0 DJIBOUTI-1B
1 62402U 24247AB  26093.01982591  .00082420  00000-0  14864-2 0  9999
2 62402  44.9726 309.9866 0007646 201.0016 159.0561 15.48833854 71859
Epoch: 2026-04-03T00:28Z
TLE epoch observation values (Epoch: 2026-04-03T00:28:32.958Z)
Latitude
-0.00007°
Longitude
111.48924°
Altitude
424.986 km
Speed
7.655 km/s
True Right ascension
20h 39m 56s
True Declination
0° 00' 00"
Sunlit
Object was in daylight at epoch
Visualization orbit readout
Latitude
Unknown
Longitude
Unknown
Altitude
Unknown
Speed
Unknown
Apparent Right ascension
Unknown
Apparent Declination
Unknown
Sunlit
N/A
Visualization observer readout
Local Sidereal Time
19:15:59
Azimuth
Unknown
Elevation
Unknown
Doppler factor
Unknown
Orbital elements
Apogee altitude
426.964 km
Perigee altitude
416.566 km
Semi-major axis
6,799.902 km
Eccentricity
0.00076
Inclination
44.9726°
RAAN
309.9866°
Arg. of periapsis
201.0016°
True anomaly
159.08739°
Mean anomaly
159.0561°
Eccentric anomaly
159.07175°
Mean motion
3.8707 °/min
Orbital period
93.01 mins
BSTAR
0.0014864
Loading maneuver chart data...
Computing Atmospheric mass density...
Loading historical data...
Loading historical data...
Loading historical data...
Loading historical data...
Loading historical data...
Loading historical data...
Loading historical data...

Documentation

Showing up to 5 results
|